| time (UTC) | temp F | wind direction | speed MPH | gust MPH | rain 1hr in | rain 24hr in | rain mn in | humidity % | barometer mb |
| 20260504010731 | 76 | 330 | 3.0 | 5.0 | 0.00 | 0.00 | 0.00 | 28 | 1009.5 |
| 20260504010227 | 76 | 310 | 4.0 | 5.0 | 0.00 | 0.00 | 0.00 | 28 | 1009.6 |
| 20260504005724 | 76 | 282 | 3.0 | 6.0 | 0.00 | 0.00 | 0.00 | 27 | 1009.7 |
| 20260504005221 | 77 | 217 | 2.0 | 3.0 | 0.00 | 0.00 | 0.00 | 26 | 1009.9 |
| 20260504004719 | 77 | 287 | 3.0 | 4.0 | 0.00 | 0.00 | 0.00 | 26 | 1009.7 |
| 20260504004215 | 76 | 329 | 4.0 | 5.0 | 0.00 | 0.00 | 0.00 | 27 | 1009.6 |
| 20260504003712 | 77 | 267 | 3.0 | 5.0 | 0.00 | 0.00 | 0.00 | 27 | 1009.9 |
| 20260504003209 | 76 | 90 | 0.0 | 3.0 | 0.00 | 0.00 | 0.00 | 25 | 1009.9 |
| 20260504002706 | 76 | 3 | 3.0 | 5.0 | 0.00 | 0.00 | 0.00 | 26 | 1010.0 |
| 20260504002203 | 77 | 324 | 2.0 | 3.0 | 0.00 | 0.00 | 0.00 | 25 | 1010.3 |
| 20260504001701 | 76 | 296 | 6.0 | 6.0 | 0.00 | 0.00 | 0.00 | 25 | 1009.9 |
| 20260504001157 | 76 | 288 | 3.0 | 6.0 | 0.00 | 0.00 | 0.00 | 28 | 1009.9 |
| 20260504000654 | 77 | 5 | 5.0 | 5.0 | 0.00 | 0.00 | 0.00 | 27 | 1010.3 |
| 20260504000151 | 77 | 28 | 3.0 | 8.0 | 0.00 | 0.00 | 0.00 | 25 | 1010.1 |
| 20260503235649 | 77 | 15 | 2.0 | 4.0 | 0.00 | 0.00 | 0.00 | 27 | 1010.1 |
| 20260503235145 | 77 | 231 | 3.0 | 3.0 | 0.00 | 0.00 | 0.00 | 27 | 1010.1 |
| 20260503234644 | 76 | 307 | 0.0 | 5.0 | 0.00 | 0.00 | 0.00 | 26 | 1010.5 |
| 20260503234142 | 77 | 270 | 0.0 | 3.0 | 0.00 | 0.00 | 0.00 | 25 | 1010.1 |
| 20260503233638 | 77 | 10 | 3.0 | 3.0 | 0.00 | 0.00 | 0.00 | 28 | 1010.4 |
| 20260503233134 | 76 | 273 | 4.0 | 10.0 | 0.00 | 0.00 | 0.00 | 26 | 1010.5 |
| 20260503232631 | 77 | 342 | 3.0 | 6.0 | 0.00 | 0.00 | 0.00 | 28 | 1010.5 |
| 20260503232128 | 76 | 325 | 3.0 | 4.0 | 0.00 | 0.00 | 0.00 | 27 | 1010.7 |
| 20260503231626 | 77 | 325 | 4.0 | 9.0 | 0.00 | 0.00 | 0.00 | 29 | 1010.6 |
| 20260503231122 | 76 | 282 | 4.0 | 10.0 | 0.00 | 0.00 | 0.00 | 29 | 1010.6 |
| 20260503230619 | 77 | 303 | 3.0 | 4.0 | 0.00 | 0.00 | 0.00 | 28 | 1010.7 |
| 20260503230117 | 76 | 75 | 2.0 | 5.0 | 0.00 | 0.00 | 0.00 | 28 | 1011.0 |
| 20260503225614 | 77 | 323 | 4.0 | 5.0 | 0.00 | 0.00 | 0.00 | 31 | 1010.9 |
| 20260503225113 | 78 | 0 | 1.0 | 2.0 | 0.00 | 0.00 | 0.00 | 30 | 1011.0 |
| 20260503224611 | 77 | 257 | 5.0 | 6.0 | 0.00 | 0.00 | 0.00 | 29 | 1011.1 |
| 20260503224109 | 76 | 263 | 4.0 | 5.0 | 0.00 | 0.00 | 0.00 | 30 | 1011.1 |
| 20260503223607 | 75 | 285 | 3.0 | 7.0 | 0.00 | 0.00 | 0.00 | 31 | 1011.0 |
| 20260503223102 | 75 | 58 | 3.0 | 7.0 | 0.00 | 0.00 | 0.00 | 30 | 1011.3 |
| 20260503222600 | 76 | 311 | 3.0 | 3.0 | 0.00 | 0.00 | 0.00 | 29 | 1011.3 |
| 20260503222058 | 74 | 257 | 0.0 | 7.0 | 0.00 | 0.00 | 0.00 | 29 | 1011.4 |
| 20260503221556 | 74 | 345 | 0.0 | 5.0 | 0.00 | 0.00 | 0.00 | 31 | 1011.3 |
| 20260503221053 | 75 | 250 | 2.0 | 5.0 | 0.00 | 0.00 | 0.00 | 32 | 1011.6 |
| 20260503220549 | 76 | 270 | 2.0 | 3.0 | 0.00 | 0.00 | 0.00 | 32 | 1011.7 |
| 20260503220046 | 74 | 18 | 2.0 | 5.0 | 0.00 | 0.00 | 0.00 | 32 | 1011.7 |
| 20260503215543 | 74 | 343 | 5.0 | 6.0 | 0.00 | 0.00 | 0.00 | 31 | 1011.9 |
| 20260503215040 | 75 | 274 | 3.0 | 5.0 | 0.00 | 0.00 | 0.00 | 31 | 1012.0 |
| 20260503214539 | 75 | 0 | 2.0 | 3.0 | 0.00 | 0.00 | 0.00 | 32 | 1012.1 |
| 20260503214035 | 75 | 20 | 4.0 | 4.0 | 0.00 | 0.00 | 0.00 | 32 | 1012.1 |
| 20260503213533 | 73 | 165 | 0.0 | 6.0 | 0.00 | 0.00 | 0.00 | 33 | 1012.4 |
| 20260503213030 | 74 | 278 | 5.0 | 6.0 | 0.00 | 0.00 | 0.00 | 31 | 1012.5 |
| 20260503212527 | 74 | 270 | 0.0 | 4.0 | 0.00 | 0.00 | 0.00 | 32 | 1012.4 |
| 20260503212024 | 72 | 331 | 3.0 | 4.0 | 0.00 | 0.00 | 0.00 | 34 | 1012.4 |
| 20260503211521 | 73 | 290 | 4.0 | 8.0 | 0.00 | 0.00 | 0.00 | 33 | 1012.5 |
| 20260503211017 | 73 | 252 | 5.0 | 7.0 | 0.00 | 0.00 | 0.00 | 33 | 1012.6 |
| 20260503210514 | 73 | 270 | 3.0 | 5.0 | 0.00 | 0.00 | 0.00 | 33 | 1012.7 |
| 20260503210010 | 72 | 305 | 4.0 | 5.0 | 0.00 | 0.00 | 0.00 | 33 | 1012.9 |
| 20260503205506 | 71 | 90 | 0.0 | 7.0 | 0.00 | 0.00 | 0.00 | 32 | 1012.9 |
| 20260503205003 | 73 | 248 | 3.0 | 7.0 | 0.00 | 0.00 | 0.00 | 33 | 1012.9 |
| 20260503204500 | 74 | 90 | 3.0 | 3.0 | 0.00 | 0.00 | 0.00 | 32 | 1013.0 |
| 20260503203956 | 72 | 240 | 0.0 | 3.0 | 0.00 | 0.00 | 0.00 | 33 | 1013.1 |
| 20260503203454 | 72 | 48 | 2.0 | 5.0 | 0.00 | 0.00 | 0.00 | 32 | 1013.2 |
| 20260503202950 | 72 | 342 | 2.0 | 6.0 | 0.00 | 0.00 | 0.00 | 34 | 1013.1 |
| 20260503202449 | 72 | 8 | 4.0 | 4.0 | 0.00 | 0.00 | 0.00 | 32 | 1013.2 |
| 20260503201947 | 72 | 270 | 6.0 | 7.0 | 0.00 | 0.00 | 0.00 | 33 | 1013.2 |
| 20260503201444 | 73 | 24 | 4.0 | 5.0 | 0.00 | 0.00 | 0.00 | 31 | 1013.5 |
| 20260503200941 | 73 | 106 | 1.0 | 3.0 | 0.00 | 0.00 | 0.00 | 32 | 1013.6 |
| 20260503200438 | 71 | 63 | 3.0 | 5.0 | 0.00 | 0.00 | 0.00 | 31 | 1013.5 |
| 20260503195934 | 71 | 270 | 0.0 | 3.0 | 0.00 | 0.00 | 0.00 | 31 | 1013.4 |
| 20260503195432 | 70 | 0 | 3.0 | 5.0 | 0.00 | 0.00 | 0.00 | 32 | 1013.8 |
| 20260503194928 | 71 | 297 | 5.0 | 5.0 | 0.00 | 0.00 | 0.00 | 34 | 1013.6 |
| 20260503194425 | 70 | 270 | 0.0 | 8.0 | 0.00 | 0.00 | 0.00 | 33 | 1013.8 |
| 20260503193920 | 71 | 345 | 0.0 | 3.0 | 0.00 | 0.00 | 0.00 | 35 | 1014.1 |
| 20260503193416 | 71 | 358 | 3.0 | 5.0 | 0.00 | 0.00 | 0.00 | 34 | 1014.0 |
| 20260503192912 | 70 | 83 | 4.0 | 4.0 | 0.00 | 0.00 | 0.00 | 35 | 1014.1 |
| 20260503192408 | 69 | 262 | 1.0 | 5.0 | 0.00 | 0.00 | 0.00 | 36 | 1014.1 |
| 20260503191904 | 69 | 254 | 0.0 | 3.0 | 0.00 | 0.00 | 0.00 | 38 | 1014.4 |
| 20260503191402 | 68 | 261 | 0.0 | 5.0 | 0.00 | 0.00 | 0.00 | 37 | 1014.5 |
| 20260503190858 | 68 | 22 | 2.0 | 7.0 | 0.00 | 0.00 | 0.00 | 39 | 1014.5 |
| 20260503190355 | 69 | 304 | 2.0 | 3.0 | 0.00 | 0.00 | 0.00 | 39 | 1014.5 |
| 20260503185852 | 68 | 340 | 3.0 | 5.0 | 0.00 | 0.00 | 0.00 | 40 | 1014.6 |
| 20260503185348 | 67 | 270 | 0.0 | 2.0 | 0.00 | 0.00 | 0.00 | 41 | 1014.7 |
| 20260503184848 | 66 | 297 | 3.0 | 4.0 | 0.00 | 0.00 | 0.00 | 40 | 1014.8 |
| 20260503184344 | 67 | 312 | 4.0 | 4.0 | 0.00 | 0.00 | 0.00 | 43 | 1014.8 |
| 20260503183840 | 67 | 99 | 5.0 | 6.0 | 0.00 | 0.00 | 0.00 | 46 | 1014.9 |
| 20260503183338 | 65 | 117 | 0.0 | 4.0 | 0.00 | 0.00 | 0.00 | 46 | 1015.0 |
| 20260503182835 | 65 | 274 | 3.0 | 5.0 | 0.00 | 0.00 | 0.00 | 48 | 1015.2 |
| 20260503182334 | 65 | 326 | 4.0 | 5.0 | 0.00 | 0.00 | 0.00 | 48 | 1015.4 |
| 20260503181831 | 63 | 315 | 3.0 | 6.0 | 0.00 | 0.00 | 0.00 | 50 | 1015.5 |
| 20260503181328 | 63 | 9 | 3.0 | 6.0 | 0.00 | 0.00 | 0.00 | 50 | 1015.4 |
| 20260503180824 | 62 | 192 | 2.0 | 5.0 | 0.00 | 0.00 | 0.00 | 50 | 1015.5 |
| 20260503180322 | 62 | 306 | 4.0 | 6.0 | 0.00 | 0.00 | 0.00 | 50 | 1015.7 |
| 20260503175818 | 63 | 307 | 4.0 | 6.0 | 0.00 | 0.00 | 0.00 | 50 | 1015.6 |
| 20260503175316 | 63 | 337 | 3.0 | 4.0 | 0.00 | 0.00 | 0.00 | 49 | 1015.9 |
| 20260503174812 | 62 | 0 | 1.0 | 2.0 | 0.00 | 0.00 | 0.00 | 51 | 1015.8 |
| 20260503174310 | 61 | 278 | 2.0 | 4.0 | 0.00 | 0.00 | 0.00 | 52 | 1015.9 |
| 20260503173806 | 61 | 336 | 7.0 | 7.0 | 0.00 | 0.00 | 0.00 | 51 | 1015.9 |
| 20260503173301 | 62 | 322 | 2.0 | 3.0 | 0.00 | 0.00 | 0.00 | 50 | 1016.2 |
| 20260503172758 | 61 | 347 | 5.0 | 5.0 | 0.00 | 0.00 | 0.00 | 53 | 1016.2 |
| 20260503172256 | 60 | 337 | 3.0 | 6.0 | 0.00 | 0.00 | 0.00 | 52 | 1016.5 |
| 20260503171752 | 59 | 320 | 3.0 | 6.0 | 0.00 | 0.00 | 0.00 | 53 | 1016.5 |
| 20260503171249 | 59 | 3 | 5.0 | 5.0 | 0.00 | 0.00 | 0.00 | 54 | 1016.1 |
| 20260503170746 | 59 | 357 | 2.0 | 6.0 | 0.00 | 0.00 | 0.00 | 54 | 1016.5 |
| 20260503170243 | 59 | 300 | 0.0 | 3.0 | 0.00 | 0.00 | 0.00 | 53 | 1016.6 |
| 20260503160205 | 54 | 294 | 0.0 | 4.0 | 0.00 | 0.00 | 0.00 | 59 | 1017.1 |
| 20260503150635 | 52 | 78 | 3.0 | 4.0 | 0.00 | 0.00 | 0.00 | 65 | 1017.4 |
| 20260503150131 | 50 | 346 | 1.0 | 4.0 | 0.00 | 0.00 | 0.00 | 67 | 1017.6 |
| 20260503131025 | 43 | 74 | 0.0 | 2.0 | 0.00 | 0.00 | 0.00 | 81 | 1017.2 |
| 20260503130522 | 42 | 114 | 1.0 | 2.0 | 0.00 | 0.00 | 0.00 | 82 | 1017.4 |
| 20260503110407 | 44 | 119 | 3.0 | 3.0 | 0.00 | 0.00 | 0.00 | 78 | 1017.5 |
| 20260503090258 | 46 | 106 | 3.0 | 4.0 | 0.00 | 0.00 | 0.00 | 72 | 1016.9 |
| 20260503081225 | 50 | 102 | 3.0 | 4.0 | 0.00 | 0.00 | 0.00 | 64 | 1016.6 |
| 20260503080721 | 49 | 105 | 4.0 | 5.0 | 0.00 | 0.00 | 0.00 | 66 | 1016.5 |
| 20260503080218 | 48 | 101 | 3.0 | 4.0 | 0.00 | 0.00 | 0.00 | 67 | 1016.5 |
| 20260503072655 | 50 | 94 | 2.0 | 3.0 | 0.00 | 0.00 | 0.00 | 65 | 1016.2 |
| 20260503072151 | 50 | 101 | 2.0 | 3.0 | 0.00 | 0.00 | 0.00 | 64 | 1016.5 |
| 20260503071649 | 51 | 108 | 3.0 | 3.0 | 0.00 | 0.00 | 0.00 | 63 | 1016.5 |
| 20260503071145 | 50 | 120 | 3.0 | 3.0 | 0.00 | 0.00 | 0.00 | 64 | 1016.1 |
| 20260503070642 | 51 | 120 | 2.0 | 4.0 | 0.00 | 0.00 | 0.00 | 63 | 1016.2 |
| 20260503070140 | 50 | 112 | 4.0 | 5.0 | 0.00 | 0.00 | 0.00 | 65 | 1016.4 |
| 20260503060104 | 51 | 100 | 3.0 | 3.0 | 0.00 | 0.00 | 0.00 | 64 | 1016.1 |
| 20260503055055 | 54 | 99 | 2.0 | 4.0 | 0.00 | 0.00 | 0.00 | 57 | 1016.0 |
| 20260503054551 | 54 | 100 | 3.0 | 3.0 | 0.00 | 0.00 | 0.00 | 55 | 1015.8 |
| 20260503054049 | 55 | 110 | 3.0 | 5.0 | 0.00 | 0.00 | 0.00 | 55 | 1015.8 |
| 20260503053547 | 55 | 96 | 3.0 | 6.0 | 0.00 | 0.00 | 0.00 | 55 | 1015.7 |
| 20260503053044 | 55 | 117 | 3.0 | 4.0 | 0.00 | 0.00 | 0.00 | 55 | 1016.0 |
| 20260503052541 | 55 | 112 | 2.0 | 5.0 | 0.00 | 0.00 | 0.00 | 54 | 1015.8 |
| 20260503052037 | 54 | 107 | 4.0 | 5.0 | 0.00 | 0.00 | 0.00 | 57 | 1016.0 |
| 20260503051533 | 53 | 95 | 3.0 | 4.0 | 0.00 | 0.00 | 0.00 | 58 | 1015.9 |
| 20260503051031 | 54 | 90 | 3.0 | 4.0 | 0.00 | 0.00 | 0.00 | 57 | 1015.7 |
| 20260503050526 | 55 | 117 | 3.0 | 4.0 | 0.00 | 0.00 | 0.00 | 55 | 1015.9 |
| 20260503050024 | 55 | 103 | 4.0 | 4.0 | 0.00 | 0.00 | 0.00 | 54 | 1015.9 |
| 20260503045521 | 55 | 119 | 4.0 | 8.0 | 0.00 | 0.00 | 0.00 | 55 | 1015.7 |
| 20260503045018 | 55 | 98 | 5.0 | 6.0 | 0.00 | 0.00 | 0.00 | 53 | 1015.9 |
| 20260503044514 | 55 | 94 | 6.0 | 6.0 | 0.00 | 0.00 | 0.00 | 55 | 1015.7 |
| 20260503044012 | 55 | 110 | 5.0 | 7.0 | 0.00 | 0.00 | 0.00 | 54 | 1015.9 |
| 20260503043508 | 56 | 90 | 5.0 | 5.0 | 0.00 | 0.00 | 0.00 | 54 | 1015.9 |
| 20260503043005 | 56 | 103 | 3.0 | 6.0 | 0.00 | 0.00 | 0.00 | 53 | 1015.7 |
| 20260503042502 | 56 | 105 | 4.0 | 6.0 | 0.00 | 0.00 | 0.00 | 53 | 1015.6 |
| 20260503041958 | 56 | 115 | 2.0 | 7.0 | 0.00 | 0.00 | 0.00 | 52 | 1015.8 |
| 20260503041455 | 57 | 98 | 7.0 | 9.0 | 0.00 | 0.00 | 0.00 | 52 | 1015.7 |
| 20260503040953 | 56 | 100 | 5.0 | 8.0 | 0.00 | 0.00 | 0.00 | 54 | 1015.7 |
| 20260503040450 | 55 | 108 | 5.0 | 5.0 | 0.00 | 0.00 | 0.00 | 56 | 1015.7 |
| 20260503035947 | 56 | 100 | 4.0 | 5.0 | 0.00 | 0.00 | 0.00 | 54 | 1015.6 |
| 20260503035444 | 56 | 111 | 5.0 | 6.0 | 0.00 | 0.00 | 0.00 | 54 | 1015.5 |
| 20260503034942 | 57 | 114 | 4.0 | 6.0 | 0.00 | 0.00 | 0.00 | 53 | 1015.5 |
| 20260503034438 | 57 | 108 | 5.0 | 6.0 | 0.00 | 0.00 | 0.00 | 52 | 1015.5 |
| 20260503033935 | 59 | 101 | 3.0 | 5.0 | 0.00 | 0.00 | 0.00 | 49 | 1015.2 |
| 20260503033433 | 58 | 103 | 1.0 | 4.0 | 0.00 | 0.00 | 0.00 | 50 | 1015.0 |
| 20260503032931 | 59 | 116 | 3.0 | 3.0 | 0.00 | 0.00 | 0.00 | 49 | 1015.2 |
| 20260503032429 | 60 | 86 | 3.0 | 4.0 | 0.00 | 0.00 | 0.00 | 48 | 1014.9 |
| 20260503031926 | 60 | 109 | 3.0 | 4.0 | 0.00 | 0.00 | 0.00 | 49 | 1015.0 |
| 20260503031424 | 60 | 105 | 2.0 | 3.0 | 0.00 | 0.00 | 0.00 | 48 | 1014.8 |
| 20260503030920 | 60 | 103 | 3.0 | 3.0 | 0.00 | 0.00 | 0.00 | 49 | 1014.9 |
| 20260503030417 | 61 | 124 | 2.0 | 3.0 | 0.00 | 0.00 | 0.00 | 48 | 1014.7 |
| 20260503025914 | 62 | 120 | 1.0 | 2.0 | 0.00 | 0.00 | 0.00 | 46 | 1015.0 |
| 20260503025411 | 63 | 261 | 0.0 | 0.0 | 0.00 | 0.00 | 0.00 | 43 | 1014.9 |
| 20260503024908 | 64 | 60 | 0.0 | 0.0 | 0.00 | 0.00 | 0.00 | 44 | 1014.8 |
| 20260503024405 | 64 | 209 | 0.0 | 1.0 | 0.00 | 0.00 | 0.00 | 42 | 1014.8 |
| 20260503023902 | 65 | 198 | 1.0 | 3.0 | 0.00 | 0.00 | 0.00 | 41 | 1014.7 |
| 20260503023359 | 66 | 216 | 2.0 | 3.0 | 0.00 | 0.00 | 0.00 | 39 | 1014.7 |
| 20260503022855 | 66 | 191 | 2.0 | 2.0 | 0.00 | 0.00 | 0.00 | 39 | 1014.7 |
| 20260503022350 | 67 | 194 | 1.0 | 3.0 | 0.00 | 0.00 | 0.00 | 38 | 1014.6 |
| 20260503021847 | 68 | 192 | 1.0 | 3.0 | 0.00 | 0.00 | 0.00 | 38 | 1014.6 |
| 20260503021342 | 69 | 217 | 2.0 | 3.0 | 0.00 | 0.00 | 0.00 | 37 | 1014.6 |
| 20260503020840 | 69 | 215 | 1.0 | 3.0 | 0.00 | 0.00 | 0.00 | 35 | 1014.6 |
| 20260503020338 | 70 | 240 | 3.0 | 6.0 | 0.00 | 0.00 | 0.00 | 32 | 1014.5 |
| 20260503015834 | 71 | 277 | 3.0 | 9.0 | 0.00 | 0.00 | 0.00 | 31 | 1014.5 |
| 20260503015331 | 71 | 283 | 4.0 | 7.0 | 0.00 | 0.00 | 0.00 | 30 | 1014.4 |
| 20260503014827 | 72 | 273 | 3.0 | 5.0 | 0.00 | 0.00 | 0.00 | 30 | 1014.4 |
| 20260503014325 | 72 | 283 | 4.0 | 6.0 | 0.00 | 0.00 | 0.00 | 29 | 1014.6 |
| 20260503013822 | 73 | 258 | 3.0 | 5.0 | 0.00 | 0.00 | 0.00 | 28 | 1014.2 |
| 20260503013319 | 73 | 239 | 5.0 | 7.0 | 0.00 | 0.00 | 0.00 | 28 | 1014.4 |
| 20260503012816 | 73 | 270 | 2.0 | 4.0 | 0.00 | 0.00 | 0.00 | 29 | 1014.1 |
| 20260503012314 | 73 | 276 | 3.0 | 7.0 | 0.00 | 0.00 | 0.00 | 29 | 1014.7 |
| 20260503011810 | 72 | 265 | 4.0 | 5.0 | 0.00 | 0.00 | 0.00 | 29 | 1014.6 |
| 20260503011308 | 72 | 272 | 5.0 | 7.0 | 0.00 | 0.00 | 0.00 | 29 | 1014.5 |